Flag for Poland Weather past 2 weeks in Szczecin, Poland

Now
59 °F

Sprinkles. Fog.


Feels Like: 57 °F
Forecast: 57 / 73 °F
Wind: 10 mph from Northeast

Location: Szczecin Airport

Current Time: Jul 12, 2014 at 11:14:16 AM

Latest Report: Jul 12, 2014 at 10:30 AM


Visibility: 2 mi

Pressure: 29.86 "Hg

Humidity: 94%

Dew point: 57 °F

Location of SzczecinLocation

Historic Weather in Szczecin — Graph

°F

Szczecin temperature yesterday

Maximum temperature yesterday: 75 °F (at 11:30 AM)
Minimum temperature yesterday: 59 °F (at 10:30 PM)
Average temperature yesterday: 67 °F

Past Weeks' High & Low Weather Summary

 TemperatureHumidityPressure
High88 °F (Jul 7, 12:30 PM)100% (Jun 29, 8:00 AM)30.18 "Hg (Jun 29, 8:00 AM)
Low46 °F (Jul 2, 3:30 AM)25% (Jul 4, 4:30 PM)29.62 "Hg (Jun 29, 8:00 AM)
Average66 °F70%29.89 "Hg
* Reported Jun 27 10:00 AM — Jul 12 10:00 AM, Szczecin, Weather by CustomWeather, © 2014

Note: Actual official high and low records may vary slightly from our data, if they occured in-between our weather recording intervals... More about our weather records

Advertising

Szczecin weather history for previous 24 hours

 ConditionsComfort  
Time TempWeatherWind HumidityBarometerVisibility
10:00 AM
Jul 12
59 °FSprinkles. Broken clouds.7 mph94%29.86 "HgN/A
9:30 AM61 °FBroken clouds.6 mph88%29.86 "HgN/A
9:00 AM61 °FBroken clouds.5 mph88%29.86 "HgN/A
8:30 AM61 °FBroken clouds.5 mph88%29.86 "HgN/A
8:00 AM61 °FPassing clouds.5 mph88%29.86 "HgN/A
7:30 AM59 °FPassing clouds.2 mph88%29.86 "HgN/A
7:00 AM57 °FScattered clouds.5 mph94%29.86 "HgN/A
6:30 AM55 °FScattered clouds.5 mph94%29.86 "HgN/A
6:00 AM55 °FScattered clouds.3 mph94%29.86 "HgN/A
5:30 AM55 °FPassing clouds.3 mph94%29.86 "HgN/A
5:00 AM55 °FPassing clouds.5 mph88%29.86 "HgN/A
4:30 AM54 °FClear.3 mph94%29.86 "Hg10 mi
4:00 AM55 °FClear.5 mph88%29.86 "Hg10 mi
3:30 AM55 °FClear.6 mph88%29.89 "Hg10 mi
3:00 AM55 °FClear.6 mph88%29.89 "Hg10 mi
2:30 AM55 °FClear.5 mph94%29.89 "Hg10 mi
2:00 AM57 °FPassing clouds.5 mph88%29.89 "HgN/A
1:30 AM57 °FClear.6 mph88%29.89 "Hg10 mi
1:00 AM57 °FClear.7 mph88%29.89 "Hg10 mi
12:30 AM57 °FClear.7 mph88%29.89 "Hg10 mi
12:00 AM57 °FClear.6 mph88%29.89 "Hg10 mi
11:30 PM
Jul 11
59 °FClear.7 mph82%29.89 "Hg10 mi
11:00 PM59 °FPassing clouds.7 mph82%29.89 "HgN/A
10:30 PM59 °FClear.7 mph82%29.89 "Hg10 mi
10:00 PM61 °FSunny.8 mph83%29.89 "Hg10 mi
9:30 PM61 °FPassing clouds.7 mph77%29.89 "HgN/A
9:00 PM63 °FPassing clouds.9 mph73%29.89 "HgN/A
8:30 PM64 °FSunny.12 mph68%29.89 "Hg10 mi
8:00 PM64 °FSunny.13 mph73%29.86 "Hg10 mi
7:30 PM66 °FPassing clouds.13 mph64%29.86 "HgN/A
7:00 PM66 °FPassing clouds.13 mph64%29.86 "HgN/A
6:30 PM66 °FPassing clouds.14 mph60%29.86 "HgN/A
6:00 PM68 °FPassing clouds.15 mph53%29.86 "HgN/A
5:30 PM68 °FPassing clouds.16 mph49%29.86 "HgN/A
5:00 PM68 °FPassing clouds.15 mph46%29.89 "HgN/A
4:30 PM70 °FPassing clouds.17 mph40%29.86 "HgN/A
4:00 PM72 °FPassing clouds.16 mph44%29.86 "HgN/A
3:30 PM72 °FPassing clouds.16 mph38%29.86 "HgN/A
3:00 PM73 °FPassing clouds.15 mph38%29.86 "HgN/A
2:30 PM73 °FPassing clouds.15 mph44%29.86 "HgN/A
2:00 PM75 °FPassing clouds.14 mph47%29.86 "HgN/A
1:30 PM75 °FScattered clouds.13 mph47%29.86 "HgN/A
1:00 PM75 °FScattered clouds.14 mph44%29.89 "HgN/A
12:30 PM75 °FScattered clouds.10 mph47%29.89 "HgN/A
12:00 PM75 °FScattered clouds.10 mph50%29.89 "HgN/A
11:30 AM75 °FScattered clouds.14 mph50%29.89 "HgN/A
11:00 AM73 °FScattered clouds.13 mph53%29.89 "HgN/A
Weather by CustomWeather, © 2014

See weather overviewHow to use our weather pages